Location: Gazon
(48.1318°N, 1.2708°W)
Time: 23:13:09
(UTC+00:00)

Cosmos 2278 Rocket - Pass Details

Date: 18 September 2020
Orbit: 841 x 845 km, 71.0° (Epoch: 25 October)

Event Time Altitude Azimuth Distance (km) Brightness Sun altitude
Exits shadow 21:22:21 13° 41° (NE) 2,251 4.4 -29.9°
Drops below altitude 10° 21:22:58 10° 39° (NE) 2,469 4.7 -30.0°
Sets 21:25:30 0° 33° (NNE) 3,408 5.5 -30.3°
